TimeEDT,TemperatureF,Dew PointF,Humidity,Sea Level PressureIn,VisibilityMPH,Wind Direction,Wind SpeedMPH,Gust SpeedMPH,PrecipitationIn,Events,Conditions,WindDirDegrees,DateUTC
12:15 AM,57.2,50.0,77,30.01,10.0,SE,3.5,-,N/A,,Clear,130,2014-04-25 04:15:00
12:35 AM,57.2,50.0,77,30.00,10.0,Calm,Calm,-,N/A,,Clear,0,2014-04-25 04:35:00
12:55 AM,57.2,51.8,82,30.00,10.0,SE,4.6,-,N/A,,Clear,130,2014-04-25 04:55:00
1:15 AM,57.2,51.8,82,30.00,10.0,SSE,4.6,-,N/A,,Clear,150,2014-04-25 05:15:00
1:35 AM,57.2,51.8,82,29.98,10.0,ESE,4.6,-,N/A,,Clear,120,2014-04-25 05:35:00
1:55 AM,55.4,50.0,82,29.98,10.0,Calm,Calm,-,N/A,,Clear,0,2014-04-25 05:55:00
2:15 AM,55.4,50.0,82,29.97,10.0,Calm,Calm,-,N/A,,Clear,0,2014-04-25 06:15:00
2:35 AM,55.4,50.0,82,29.97,10.0,Calm,Calm,-,N/A,,Clear,0,2014-04-25 06:35:00
2:55 AM,55.4,50.0,82,29.97,10.0,Calm,Calm,-,N/A,,Clear,0,2014-04-25 06:55:00
3:15 AM,53.6,50.0,88,29.97,10.0,ENE,4.6,-,N/A,,Clear,70,2014-04-25 07:15:00
3:35 AM,53.6,50.0,88,29.97,10.0,East,3.5,-,N/A,,Clear,80,2014-04-25 07:35:00
3:55 AM,53.6,50.0,88,29.96,10.0,Calm,Calm,-,N/A,,Clear,0,2014-04-25 07:55:00
4:15 AM,53.6,50.0,88,29.96,10.0,Calm,Calm,-,N/A,,Clear,0,2014-04-25 08:15:00
4:35 AM,53.6,50.0,88,29.96,10.0,Calm,Calm,-,N/A,,Clear,0,2014-04-25 08:35:00
4:55 AM,53.6,50.0,88,29.95,10.0,Calm,Calm,-,N/A,,Clear,0,2014-04-25 08:55:00
5:15 AM,53.6,50.0,88,29.96,10.0,Calm,Calm,-,N/A,,Clear,0,2014-04-25 09:15:00
5:35 AM,55.4,50.0,82,29.96,10.0,Calm,Calm,-,N/A,,Partly Cloudy,0,2014-04-25 09:35:00
5:55 AM,55.4,50.0,82,29.96,10.0,Calm,Calm,-,N/A,,Scattered Clouds,0,2014-04-25 09:55:00
6:15 AM,55.4,50.0,82,29.96,10.0,Calm,Calm,-,N/A,,Scattered Clouds,0,2014-04-25 10:15:00
6:35 AM,55.4,50.0,82,29.95,9.0,Calm,Calm,-,N/A,,Scattered Clouds,0,2014-04-25 10:35:00
6:55 AM,53.6,50.0,88,29.94,9.0,Calm,Calm,-,N/A,,Partly Cloudy,0,2014-04-25 10:55:00
7:15 AM,55.4,51.8,88,29.94,10.0,Calm,Calm,-,N/A,,Partly Cloudy,0,2014-04-25 11:15:00
7:35 AM,55.4,51.8,88,29.93,9.0,ESE,3.5,-,N/A,,Partly Cloudy,120,2014-04-25 11:35:00
7:55 AM,57.2,53.6,88,29.93,9.0,SE,4.6,-,N/A,,Clear,140,2014-04-25 11:55:00
8:15 AM,60.8,55.4,82,29.92,9.0,SE,4.6,-,N/A,,Clear,140,2014-04-25 12:15:00
8:35 AM,62.6,59.0,88,29.93,10.0,SSE,5.8,-,N/A,,Clear,150,2014-04-25 12:35:00
8:55 AM,66.2,60.8,83,29.93,10.0,South,6.9,-,N/A,,Clear,170,2014-04-25 12:55:00
9:15 AM,68.0,60.8,78,29.92,10.0,South,9.2,-,N/A,,Clear,190,2014-04-25 13:15:00
9:35 AM,69.8,60.8,73,29.91,10.0,South,11.5,-,N/A,,Clear,180,2014-04-25 13:35:00
9:55 AM,71.6,62.6,73,29.91,10.0,SSW,12.7,-,N/A,,Clear,210,2014-04-25 13:55:00
10:15 AM,73.4,62.6,69,29.90,10.0,SSW,12.7,19.6,N/A,,Clear,200,2014-04-25 14:15:00
10:35 AM,75.2,64.4,69,29.89,10.0,South,10.4,-,N/A,,Clear,190,2014-04-25 14:35:00
10:55 AM,77.0,64.4,65,29.89,10.0,South,12.7,-,N/A,,Clear,190,2014-04-25 14:55:00
11:15 AM,78.8,64.4,61,29.89,10.0,South,12.7,19.6,N/A,,Partly Cloudy,190,2014-04-25 15:15:00
11:35 AM,78.8,64.4,61,29.88,10.0,SSW,15.0,20.7,N/A,,Partly Cloudy,200,2014-04-25 15:35:00
11:55 AM,78.8,64.4,61,29.87,10.0,SSW,11.5,18.4,N/A,,Scattered Clouds,200,2014-04-25 15:55:00
12:15 PM,80.6,64.4,58,29.86,10.0,South,13.8,20.7,N/A,,Scattered Clouds,180,2014-04-25 16:15:00
12:35 PM,80.6,64.4,58,29.85,10.0,SSW,16.1,21.9,N/A,,Scattered Clouds,200,2014-04-25 16:35:00
12:55 PM,80.6,62.6,54,29.83,10.0,South,19.6,23.0,N/A,,Scattered Clouds,190,2014-04-25 16:55:00
1:15 PM,82.4,62.6,51,29.82,10.0,SSW,20.7,25.3,N/A,,Scattered Clouds,210,2014-04-25 17:15:00
1:35 PM,84.2,60.8,45,29.81,10.0,South,23.0,29.9,N/A,,Partly Cloudy,190,2014-04-25 17:35:00
1:55 PM,84.2,59.0,42,29.80,10.0,SW,21.9,31.1,N/A,,Partly Cloudy,220,2014-04-25 17:55:00
2:15 PM,84.2,59.0,42,29.79,10.0,SW,18.4,28.8,N/A,,Scattered Clouds,220,2014-04-25 18:15:00
2:35 PM,84.2,57.2,40,29.79,10.0,SSW,19.6,27.6,N/A,,Partly Cloudy,210,2014-04-25 18:35:00
2:55 PM,84.2,57.2,40,29.77,10.0,SSW,23.0,27.6,N/A,,Scattered Clouds,200,2014-04-25 18:55:00
3:15 PM,82.4,57.2,42,29.77,10.0,SW,20.7,27.6,N/A,,Mostly Cloudy,220,2014-04-25 19:15:00
3:35 PM,82.4,55.4,39,29.75,10.0,SW,19.6,24.2,N/A,,Mostly Cloudy,220,2014-04-25 19:35:00
3:55 PM,82.4,55.4,39,29.75,10.0,SW,16.1,26.5,N/A,,Mostly Cloudy,220,2014-04-25 19:55:00
4:15 PM,84.2,57.2,40,29.74,10.0,SW,18.4,26.5,N/A,,Mostly Cloudy,220,2014-04-25 20:15:00
4:35 PM,82.4,57.2,42,29.74,10.0,SSW,19.6,26.5,N/A,,Scattered Clouds,210,2014-04-25 20:35:00
4:55 PM,82.4,57.2,42,29.73,10.0,SW,19.6,27.6,N/A,,Mostly Cloudy,230,2014-04-25 20:55:00
5:15 PM,80.6,57.2,45,29.74,10.0,SW,15.0,26.5,N/A,,Mostly Cloudy,230,2014-04-25 21:15:00
5:35 PM,80.6,57.2,45,29.75,10.0,SW,19.6,27.6,N/A,,Mostly Cloudy,230,2014-04-25 21:35:00
5:55 PM,80.6,57.2,45,29.75,10.0,WSW,19.6,25.3,N/A,,Mostly Cloudy,250,2014-04-25 21:55:00
6:15 PM,80.6,57.2,45,29.75,10.0,West,16.1,29.9,N/A,,Scattered Clouds,260,2014-04-25 22:15:00
6:35 PM,80.6,57.2,45,29.75,10.0,WSW,17.3,25.3,N/A,,Clear,240,2014-04-25 22:35:00
6:55 PM,78.8,55.4,44,29.75,10.0,WSW,16.1,24.2,N/A,,Clear,240,2014-04-25 22:55:00
7:15 PM,78.8,57.2,47,29.75,10.0,WSW,11.5,-,N/A,,Clear,240,2014-04-25 23:15:00
7:35 PM,78.8,57.2,47,29.75,10.0,SW,12.7,-,N/A,,Clear,230,2014-04-25 23:35:00
7:55 PM,77.0,57.2,50,29.76,10.0,SW,11.5,-,N/A,,Clear,230,2014-04-25 23:55:00
8:15 PM,75.2,57.2,53,29.77,10.0,WSW,11.5,-,N/A,,Clear,240,2014-04-26 00:15:00
8:35 PM,73.4,57.2,57,29.78,10.0,SW,6.9,-,N/A,,Clear,230,2014-04-26 00:35:00
8:55 PM,71.6,57.2,60,29.79,10.0,SW,5.8,-,N/A,,Partly Cloudy,230,2014-04-26 00:55:00
9:15 PM,73.4,57.2,57,29.81,10.0,NW,5.8,-,N/A,,Partly Cloudy,310,2014-04-26 01:15:00
9:35 PM,73.4,57.2,57,29.82,10.0,NNW,5.8,-,N/A,,Clear,330,2014-04-26 01:35:00
9:55 PM,71.6,57.2,60,29.84,10.0,North,5.8,-,N/A,,Partly Cloudy,350,2014-04-26 01:55:00
10:15 PM,71.6,57.2,60,29.85,10.0,NNW,6.9,-,N/A,,Scattered Clouds,340,2014-04-26 02:15:00
10:35 PM,69.8,57.2,64,29.85,10.0,NNW,4.6,-,N/A,,Mostly Cloudy,340,2014-04-26 02:35:00
10:55 PM,69.8,55.4,60,29.86,10.0,NNW,6.9,-,N/A,,Partly Cloudy,340,2014-04-26 02:55:00
11:15 PM,68.0,55.4,64,29.87,10.0,NNW,5.8,-,N/A,,Clear,340,2014-04-26 03:15:00
11:35 PM,68.0,55.4,64,29.88,10.0,NNW,4.6,-,N/A,,Clear,340,2014-04-26 03:35:00
11:55 PM,64.4,53.6,68,29.88,10.0,Calm,Calm,-,N/A,,Clear,0,2014-04-26 03:55:00